ONEWEB-0032, 45141

Orbit data source: Space-Track

ONEWEB-0032, 45141 is a payload satellite owned by One Web (UK) in LEO that was launched on Thu, 06 Feb 2020 UTC via a SOYUZ-2-1B launch vehicle from the Tyuratam Missile And Space Complex (TTMTR). Payload-class satellites include a variety of spacecraft equipped with specific instruments for various scientific and technological missions. These include communications satellites like Starlink; space stations such as the ISS; scientific satellites like the Hubble; Earth observation satellites from companies like Planet Labs, Umbra, and HawkEye 360; GPS; miniature CubeSats for education and research; and military/defense satellites.

Loading next visibility...
Identifier
45141, 2020-008L
Orbit
LEO
Country
Flag of UKUK
Related business
Manufacturer
One Web
Mission
Operational Commercial Communications
Bus & Motor
ARROW, Unknown motor
Mass
148 kg wet, ~140 kg dry
Launch date (UTC)
2020-02-06 (6 years ago)
Launch vehicle
SOYUZ-2-1B
Launch site
Tyuratam Missile And Space Complex (TTMTR)
Object type
Payload
Rocket body
Debris
Shape & HBR
Trap Box + 2 Pan, 6.7 m
Radar Cross Section
3.464 m², Large (>1 m²)

Expand to show TLE details & history
Last TLE update: 6 hours ago

TLE from 6 hours ago
0 ONEWEB-0032
1 45141U 20008L   26035.13934013  .00000693  00000-0  19476-2 0  9992
2 45141  87.8753  62.7856 0001913  88.8519 271.2827 13.10372219290876
Epoch: 2026-02-04T03:20Z
TLE epoch observation values (Epoch: 2026-02-04T03:20:38.987Z)
Latitude
-0.00006°
Longitude
-121.68706°
Altitude
1,224.575 km
Speed
7.242 km/s
True Right ascension
04h 11m 08s
True Declination
0° 00' 00"
Sunlit
Object was in daylight at epoch
Visualization orbit readout
Latitude
Unknown
Longitude
Unknown
Altitude
Unknown
Speed
Unknown
Apparent Right ascension
Unknown
Apparent Declination
Unknown
Sunlit
N/A
Visualization observer readout
Local Sidereal Time
11:45:33
Azimuth
Unknown
Elevation
Unknown
Doppler factor
Unknown
Orbital elements
Apogee altitude
1,220.293 km
Perigee altitude
1,217.386 km
Semi-major axis
7,596.976 km
Eccentricity
0.00019
Inclination
87.8753°
RAAN
62.7856°
Arg. of periapsis
88.8519°
True anomaly
271.26078°
Mean anomaly
271.2827°
Eccentric anomaly
271.27174°
Mean motion
3.2778 °/min
Orbital period
109.83 mins
BSTAR
0.0019476
Loading maneuver chart data...
Computing Atmospheric mass density...
Loading historical data...
Loading historical data...
Loading historical data...
Loading historical data...
Loading historical data...
Loading historical data...
Loading historical data...

Documentation

Showing up to 5 results
|